Time,TemperatureF,DewpointF,PressureIn,WindDirection,WindDirectionDegrees,WindSpeedMPH,WindSpeedGustMPH,Humidity,HourlyPrecipIn,Conditions,Clouds,dailyrainin,SoftwareType,DateUTC
2013-04-30 00:02:00,65.1,57.0,29.77,SSE,160,0.0,0.0,75,0.00,,,0.00,Wunderground v.1.15,2013-04-30 05:02:00,
2013-04-30 00:12:00,64.7,57.0,29.77,SSE,165,0.0,0.0,76,0.00,,,0.00,Wunderground v.1.15,2013-04-30 05:12:00,
2013-04-30 00:22:00,64.6,57.2,29.77,SSE,164,0.0,0.0,77,0.00,,,0.00,Wunderground v.1.15,2013-04-30 05:22:00,
2013-04-30 00:32:00,64.4,57.4,29.78,SSE,161,0.0,0.0,78,0.00,,,0.00,Wunderground v.1.15,2013-04-30 05:32:00,
2013-04-30 00:42:00,64.3,57.6,29.78,SSE,161,0.0,0.0,79,0.00,,,0.00,Wunderground v.1.15,2013-04-30 05:42:00,
2013-04-30 00:52:00,64.1,57.8,29.78,SSE,160,0.0,0.0,80,0.00,,,0.00,Wunderground v.1.15,2013-04-30 05:52:00,
2013-04-30 01:02:00,64.0,57.7,29.77,SSE,158,0.0,0.0,80,0.00,,,0.00,Wunderground v.1.15,2013-04-30 06:02:00,
2013-04-30 01:12:00,64.0,57.7,29.77,SSE,159,0.0,0.0,80,0.00,,,0.00,Wunderground v.1.15,2013-04-30 06:12:00,
2013-04-30 01:22:00,63.8,57.9,29.77,SSE,160,0.0,0.0,81,0.00,,,0.00,Wunderground v.1.15,2013-04-30 06:22:00,
2013-04-30 01:32:00,63.6,58.0,29.77,SE,142,0.0,0.0,82,0.00,,,0.00,Wunderground v.1.15,2013-04-30 06:32:00,
2013-04-30 01:42:00,63.5,57.9,29.77,SE,135,0.0,0.0,82,0.00,,,0.00,Wunderground v.1.15,2013-04-30 06:42:00,
2013-04-30 01:52:00,63.2,57.9,29.77,SE,138,0.0,0.0,83,0.00,,,0.00,Wunderground v.1.15,2013-04-30 06:52:00,
2013-04-30 02:02:00,62.9,57.7,29.77,SE,142,0.0,0.0,83,0.00,,,0.00,Wunderground v.1.15,2013-04-30 07:02:00,
2013-04-30 02:12:00,62.7,57.8,29.77,SSE,156,0.0,0.0,84,0.00,,,0.00,Wunderground v.1.15,2013-04-30 07:12:00,
2013-04-30 02:22:00,62.5,57.6,29.77,SE,138,0.0,0.0,84,0.00,,,0.00,Wunderground v.1.15,2013-04-30 07:22:00,
2013-04-30 02:32:00,62.4,57.8,29.77,SE,143,0.0,5.0,85,0.00,,,0.00,Wunderground v.1.15,2013-04-30 07:32:00,
2013-04-30 02:42:00,62.2,57.6,29.78,SE,142,0.0,5.0,85,0.00,,,0.00,Wunderground v.1.15,2013-04-30 07:42:00,
2013-04-30 02:52:00,61.9,57.3,29.79,SSE,163,0.0,4.0,85,0.00,,,0.00,Wunderground v.1.15,2013-04-30 07:52:00,
2013-04-30 03:02:00,61.8,57.6,29.79,SSE,159,0.0,0.0,86,0.00,,,0.00,Wunderground v.1.15,2013-04-30 08:02:00,
2013-04-30 03:12:00,61.8,57.9,29.78,SSE,163,0.0,0.0,87,0.00,,,0.00,Wunderground v.1.15,2013-04-30 08:12:00,
2013-04-30 03:22:00,61.8,57.9,29.79,SSE,159,0.0,0.0,87,0.00,,,0.00,Wunderground v.1.15,2013-04-30 08:22:00,
2013-04-30 03:32:00,61.6,57.7,29.79,SSE,157,0.0,0.0,87,0.00,,,0.00,Wunderground v.1.15,2013-04-30 08:32:00,
2013-04-30 03:42:00,61.6,57.7,29.79,SSE,153,0.0,0.0,87,0.00,,,0.00,Wunderground v.1.15,2013-04-30 08:42:00,
2013-04-30 03:52:00,61.6,58.0,29.79,SSE,153,0.0,0.0,88,0.00,,,0.00,Wunderground v.1.15,2013-04-30 08:52:00,
2013-04-30 04:02:00,61.5,57.6,29.79,SSE,148,0.0,0.0,87,0.00,,,0.00,Wunderground v.1.15,2013-04-30 09:02:00,
2013-04-30 04:12:00,61.2,57.6,29.79,SSE,148,0.0,0.0,88,0.00,,,0.00,Wunderground v.1.15,2013-04-30 09:12:00,
2013-04-30 04:22:00,61.2,57.6,29.79,SSE,158,0.0,0.0,88,0.00,,,0.00,Wunderground v.1.15,2013-04-30 09:22:00,
2013-04-30 04:32:00,61.0,57.4,29.79,SSE,156,0.0,0.0,88,0.00,,,0.00,Wunderground v.1.15,2013-04-30 09:32:00,
2013-04-30 04:42:00,60.7,57.1,29.79,SSE,153,0.0,0.0,88,0.00,,,0.00,Wunderground v.1.15,2013-04-30 09:42:00,
2013-04-30 04:52:00,60.6,57.3,29.79,SE,141,0.0,0.0,89,0.00,,,0.00,Wunderground v.1.15,2013-04-30 09:52:00,
2013-04-30 05:02:00,60.4,56.8,29.80,SSE,155,0.0,0.0,88,0.00,,,0.00,Wunderground v.1.15,2013-04-30 10:02:00,
2013-04-30 05:12:00,60.3,57.0,29.80,SSE,157,0.0,0.0,89,0.00,,,0.00,Wunderground v.1.15,2013-04-30 10:12:00,
2013-04-30 05:22:00,60.1,56.8,29.80,SSE,155,0.0,0.0,89,0.00,,,0.00,Wunderground v.1.15,2013-04-30 10:22:00,
2013-04-30 05:32:00,60.1,56.8,29.80,SSE,157,0.0,0.0,89,0.00,,,0.00,Wunderground v.1.15,2013-04-30 10:32:00,
2013-04-30 05:42:00,60.1,56.8,29.81,SSE,163,0.0,0.0,89,0.00,,,0.00,Wunderground v.1.15,2013-04-30 10:42:00,
2013-04-30 05:52:00,60.0,56.7,29.81,SSE,165,0.0,0.0,89,0.00,,,0.00,Wunderground v.1.15,2013-04-30 10:52:00,
2013-04-30 06:02:00,60.0,56.7,29.82,SSE,159,0.0,0.0,89,0.00,,,0.00,Wunderground v.1.15,2013-04-30 11:02:00,
2013-04-30 06:12:00,60.0,56.7,29.82,SSE,167,0.0,0.0,89,0.00,,,0.00,Wunderground v.1.15,2013-04-30 11:12:00,
2013-04-30 06:22:00,59.8,56.6,29.83,South,169,0.0,0.0,89,0.00,,,0.00,Wunderground v.1.15,2013-04-30 11:22:00,
2013-04-30 06:32:00,60.0,56.7,29.83,South,169,0.0,0.0,89,0.00,,,0.00,Wunderground v.1.15,2013-04-30 11:32:00,
2013-04-30 06:42:00,60.1,56.8,29.84,SSE,161,0.0,0.0,89,0.00,,,0.00,Wunderground v.1.15,2013-04-30 11:42:00,
2013-04-30 06:52:00,60.4,57.1,29.84,SE,143,0.0,0.0,89,0.00,,,0.00,Wunderground v.1.15,2013-04-30 11:52:00,
2013-04-30 07:02:00,60.7,57.4,29.85,SE,140,0.0,0.0,89,0.00,,,0.00,Wunderground v.1.15,2013-04-30 12:02:00,
2013-04-30 07:12:00,61.0,57.4,29.85,SSE,152,0.0,0.0,88,0.00,,,0.00,Wunderground v.1.15,2013-04-30 12:12:00,
2013-04-30 07:22:00,61.5,57.9,29.85,SSE,167,0.0,0.0,88,0.00,,,0.00,Wunderground v.1.15,2013-04-30 12:22:00,
2013-04-30 07:32:00,61.6,57.7,29.86,SSE,163,0.0,0.0,87,0.00,,,0.00,Wunderground v.1.15,2013-04-30 12:32:00,
2013-04-30 07:42:00,62.2,58.3,29.86,SSE,161,0.0,0.0,87,0.00,,,0.00,Wunderground v.1.15,2013-04-30 12:42:00,
2013-04-30 07:52:00,62.5,58.3,29.85,SSE,167,0.0,0.0,86,0.00,,,0.00,Wunderground v.1.15,2013-04-30 12:52:00,
2013-04-30 08:02:00,62.9,58.3,29.86,SE,137,0.0,0.0,85,0.00,,,0.00,Wunderground v.1.15,2013-04-30 13:02:00,
2013-04-30 08:13:00,63.5,58.9,29.85,SSE,165,0.0,0.0,85,0.00,,,0.00,Wunderground v.1.15,2013-04-30 13:13:00,
2013-04-30 08:22:00,64.4,59.1,29.85,South,175,0.0,0.0,83,0.00,,,0.00,Wunderground v.1.15,2013-04-30 13:22:00,
2013-04-30 08:32:00,65.4,59.4,29.85,South,182,0.0,0.0,81,0.00,,,0.00,Wunderground v.1.15,2013-04-30 13:32:00,
2013-04-30 08:42:00,66.5,59.8,29.85,South,180,0.0,0.0,79,0.00,,,0.00,Wunderground v.1.15,2013-04-30 13:42:00,
2013-04-30 08:52:00,67.8,60.3,29.85,South,177,0.0,0.0,77,0.00,,,0.00,Wunderground v.1.15,2013-04-30 13:52:00,
2013-04-30 09:02:00,69.1,60.5,29.84,South,173,0.0,0.0,74,0.00,,,0.00,Wunderground v.1.15,2013-04-30 14:02:00,
2013-04-30 09:12:00,70.4,60.9,29.84,South,173,0.0,0.0,72,0.00,,,0.00,Wunderground v.1.15,2013-04-30 14:12:00,
2013-04-30 09:22:00,71.6,60.9,29.84,SSW,194,0.0,0.0,69,0.00,,,0.00,Wunderground v.1.15,2013-04-30 14:22:00,
2013-04-30 09:32:00,72.6,60.6,29.84,South,172,0.0,0.0,66,0.00,,,0.00,Wunderground v.1.15,2013-04-30 14:32:00,
2013-04-30 09:42:00,73.6,60.7,29.84,SSW,196,0.0,0.0,64,0.00,,,0.00,Wunderground v.1.15,2013-04-30 14:42:00,
2013-04-30 09:52:00,74.7,61.3,29.84,SSW,194,0.0,0.0,63,0.00,,,0.00,Wunderground v.1.15,2013-04-30 14:52:00,
2013-04-30 10:02:00,75.7,60.8,29.84,South,185,0.0,0.0,60,0.00,,,0.00,Wunderground v.1.15,2013-04-30 15:02:00,
2013-04-30 10:12:00,76.9,60.5,29.84,SSW,192,0.0,0.0,57,0.00,,,0.00,Wunderground v.1.15,2013-04-30 15:12:00,
2013-04-30 10:22:00,78.1,60.6,29.84,SSW,213,0.0,0.0,55,0.00,,,0.00,Wunderground v.1.15,2013-04-30 15:22:00,
2013-04-30 10:32:00,78.5,59.9,29.84,SSW,204,0.0,2.0,53,0.00,,,0.00,Wunderground v.1.15,2013-04-30 15:32:00,
2013-04-30 10:42:00,78.8,59.1,29.84,South,190,0.0,0.0,51,0.00,,,0.00,Wunderground v.1.15,2013-04-30 15:42:00,
2013-04-30 10:52:00,79.4,60.2,29.85,SSW,205,0.0,1.0,52,0.00,,,0.00,Wunderground v.1.15,2013-04-30 15:52:00,
2013-04-30 11:02:00,80.1,59.2,29.85,SSW,201,0.0,0.0,49,0.00,,,0.00,Wunderground v.1.15,2013-04-30 16:02:00,
2013-04-30 11:12:00,80.6,60.8,29.84,South,184,0.0,0.0,51,0.00,,,0.00,Wunderground v.1.15,2013-04-30 16:12:00,
2013-04-30 11:22:00,81.4,59.2,29.84,SSW,202,0.0,0.0,47,0.00,,,0.00,Wunderground v.1.15,2013-04-30 16:22:00,
2013-04-30 11:32:00,81.9,61.4,29.84,SSW,202,0.0,2.0,50,0.00,,,0.00,Wunderground v.1.15,2013-04-30 16:32:00,
2013-04-30 11:42:00,82.1,58.7,29.84,SSW,206,1.0,7.0,45,0.00,,,0.00,Wunderground v.1.15,2013-04-30 16:42:00,
2013-04-30 11:52:00,82.9,58.1,29.84,SW,223,2.0,6.0,43,0.00,,,0.00,Wunderground v.1.15,2013-04-30 16:52:00,
2013-04-30 12:02:00,82.9,57.5,29.84,SSW,196,1.0,1.0,42,0.00,,,0.00,Wunderground v.1.15,2013-04-30 17:02:00,
2013-04-30 12:12:00,83.1,58.3,29.84,SSW,196,0.0,4.0,43,0.00,,,0.00,Wunderground v.1.15,2013-04-30 17:12:00,
2013-04-30 12:22:00,83.1,58.9,29.84,South,180,0.0,2.0,44,0.00,,,0.00,Wunderground v.1.15,2013-04-30 17:22:00,
2013-04-30 12:32:00,83.6,59.4,29.84,South,178,2.0,2.0,44,0.00,,,0.00,Wunderground v.1.15,2013-04-30 17:32:00,
2013-04-30 12:42:00,83.8,58.9,29.83,SSW,196,1.0,7.0,43,0.00,,,0.00,Wunderground v.1.15,2013-04-30 17:42:00,
2013-04-30 12:52:00,84.4,56.7,29.83,SSW,200,0.0,1.0,39,0.00,,,0.00,Wunderground v.1.15,2013-04-30 17:52:00,
2013-04-30 13:02:00,84.8,55.6,29.83,SW,217,1.0,1.0,37,0.00,,,0.00,Wunderground v.1.15,2013-04-30 18:02:00,
2013-04-30 13:12:00,84.8,57.1,29.83,SSW,201,2.0,2.0,39,0.00,,,0.00,Wunderground v.1.15,2013-04-30 18:12:00,
2013-04-30 13:22:00,85.2,59.5,29.83,South,181,2.0,10.0,42,0.00,,,0.00,Wunderground v.1.15,2013-04-30 18:22:00,
2013-04-30 13:32:00,85.4,58.3,29.82,SSW,209,1.0,9.0,40,0.00,,,0.00,Wunderground v.1.15,2013-04-30 18:32:00,
2013-04-30 13:42:00,85.4,58.3,29.82,South,186,1.0,1.0,40,0.00,,,0.00,Wunderground v.1.15,2013-04-30 18:42:00,
2013-04-30 13:52:00,85.8,57.3,29.82,SSW,202,0.0,9.0,38,0.00,,,0.00,Wunderground v.1.15,2013-04-30 18:52:00,
2013-04-30 14:02:00,86.1,56.0,29.82,SSW,202,1.0,6.0,36,0.00,,,0.00,Wunderground v.1.15,2013-04-30 19:02:00,
2013-04-30 14:12:00,86.3,55.4,29.82,SSW,200,1.0,1.0,35,0.00,,,0.00,Wunderground v.1.15,2013-04-30 19:12:00,
2013-04-30 14:22:00,86.7,52.4,29.82,SSW,202,0.0,6.0,31,0.00,,,0.00,Wunderground v.1.15,2013-04-30 19:22:00,
2013-04-30 14:32:00,86.9,49.9,29.82,SSW,198,3.0,3.0,28,0.00,,,0.00,Wunderground v.1.15,2013-04-30 19:32:00,
2013-04-30 14:42:00,87.5,53.1,29.81,SSW,208,5.0,5.0,31,0.00,,,0.00,Wunderground v.1.15,2013-04-30 19:42:00,
2013-04-30 14:52:00,86.9,53.5,29.81,SSW,193,1.0,1.0,32,0.00,,,0.00,Wunderground v.1.15,2013-04-30 19:52:00,
2013-04-30 15:07:00,86.7,55.0,29.82,SSW,203,1.0,4.0,34,0.00,,,0.00,Wunderground v.1.15,2013-04-30 20:07:00,
2013-04-30 15:12:00,86.9,55.2,29.82,South,172,1.0,1.0,34,0.00,,,0.00,Wunderground v.1.15,2013-04-30 20:12:00,
2013-04-30 15:22:00,86.7,52.4,29.81,South,188,0.0,6.0,31,0.00,,,0.00,Wunderground v.1.15,2013-04-30 20:22:00,
2013-04-30 15:32:00,86.7,51.6,29.81,South,187,0.0,0.0,30,0.00,,,0.00,Wunderground v.1.15,2013-04-30 20:32:00,
2013-04-30 15:42:00,86.5,48.5,29.81,SSW,213,0.0,0.0,27,0.00,,,0.00,Wunderground v.1.15,2013-04-30 20:42:00,
2013-04-30 15:52:00,86.5,50.5,29.81,SSW,207,0.0,5.0,29,0.00,,,0.00,Wunderground v.1.15,2013-04-30 20:52:00,
2013-04-30 16:02:00,86.3,51.2,29.81,South,190,0.0,0.0,30,0.00,,,0.00,Wunderground v.1.15,2013-04-30 21:02:00,
2013-04-30 16:12:00,85.8,50.8,29.82,South,183,0.0,0.0,30,0.00,,,0.00,Wunderground v.1.15,2013-04-30 21:12:00,
2013-04-30 16:22:00,85.6,51.5,29.82,SSE,161,0.0,0.0,31,0.00,,,0.00,Wunderground v.1.15,2013-04-30 21:22:00,
2013-04-30 16:32:00,85.4,48.6,29.83,South,180,0.0,0.0,28,0.00,,,0.00,Wunderground v.1.15,2013-04-30 21:32:00,
2013-04-30 16:42:00,85.0,49.2,29.83,SSW,192,0.0,0.0,29,0.00,,,0.00,Wunderground v.1.15,2013-04-30 21:42:00,
2013-04-30 16:52:00,84.6,48.8,29.83,SSW,202,0.0,0.0,29,0.00,,,0.00,Wunderground v.1.15,2013-04-30 21:52:00,
2013-04-30 17:02:00,84.4,47.7,29.83,South,178,0.0,0.0,28,0.00,,,0.00,Wunderground v.1.15,2013-04-30 22:02:00,
2013-04-30 17:12:00,84.4,47.7,29.84,SSW,196,0.0,0.0,28,0.00,,,0.00,Wunderground v.1.15,2013-04-30 22:12:00,
2013-04-30 17:22:00,84.4,41.4,29.84,SSW,200,0.0,0.0,22,0.00,,,0.00,Wunderground v.1.15,2013-04-30 22:22:00,
2013-04-30 17:32:00,84.4,38.9,29.84,South,182,0.0,0.0,20,0.00,,,0.00,Wunderground v.1.15,2013-04-30 22:32:00,
2013-04-30 17:42:00,84.2,45.6,29.85,South,179,0.0,0.0,26,0.00,,,0.00,Wunderground v.1.15,2013-04-30 22:42:00,
2013-04-30 17:52:00,83.4,47.8,29.85,South,183,0.0,0.0,29,0.00,,,0.00,Wunderground v.1.15,2013-04-30 22:52:00,
2013-04-30 18:02:00,82.7,46.3,29.85,South,182,0.0,0.0,28,0.00,,,0.00,Wunderground v.1.15,2013-04-30 23:02:00,
2013-04-30 18:12:00,82.3,46.9,29.85,SSW,193,0.0,0.0,29,0.00,,,0.00,Wunderground v.1.15,2013-04-30 23:12:00,
2013-04-30 18:22:00,82.1,47.6,29.85,South,187,0.0,0.0,30,0.00,,,0.00,Wunderground v.1.15,2013-04-30 23:22:00,
2013-04-30 18:32:00,81.8,49.9,29.85,SSE,160,0.0,0.0,33,0.00,,,0.00,Wunderground v.1.15,2013-04-30 23:32:00,
2013-04-30 18:42:00,80.8,52.1,29.85,South,183,0.0,0.0,37,0.00,,,0.00,Wunderground v.1.15,2013-04-30 23:42:00,
2013-04-30 18:52:00,80.3,51.7,29.86,South,184,0.0,0.0,37,0.00,,,0.00,Wunderground v.1.15,2013-04-30 23:52:00,
2013-04-30 19:02:00,79.7,51.8,29.85,South,181,0.0,0.0,38,0.00,,,0.00,Wunderground v.1.15,2013-05-01 00:02:00,
2013-04-30 19:12:00,78.8,52.4,29.86,South,174,0.0,0.0,40,0.00,,,0.00,Wunderground v.1.15,2013-05-01 00:12:00,
2013-04-30 19:22:00,78.1,51.1,29.86,South,188,0.0,0.0,39,0.00,,,0.00,Wunderground v.1.15,2013-05-01 00:22:00,
2013-04-30 19:32:00,77.1,52.9,29.86,SSE,166,0.0,0.0,43,0.00,,,0.00,Wunderground v.1.15,2013-05-01 00:32:00,
2013-04-30 19:42:00,76.6,55.4,29.87,South,175,0.0,0.0,48,0.00,,,0.00,Wunderground v.1.15,2013-05-01 00:42:00,
2013-04-30 19:52:00,75.9,55.4,29.87,SSE,167,0.0,0.0,49,0.00,,,0.00,Wunderground v.1.15,2013-05-01 00:52:00,
2013-04-30 20:02:00,75.0,55.6,29.87,SSE,167,0.0,0.0,51,0.00,,,0.00,Wunderground v.1.15,2013-05-01 01:02:00,
2013-04-30 20:12:00,74.3,55.5,29.88,SSE,167,0.0,0.0,52,0.00,,,0.00,Wunderground v.1.15,2013-05-01 01:12:00,
2013-04-30 20:22:00,73.6,55.4,29.88,SSE,166,0.0,5.0,53,0.00,,,0.00,Wunderground v.1.15,2013-05-01 01:22:00,
2013-04-30 20:32:00,73.1,54.9,29.88,SSE,161,0.0,5.0,53,0.00,,,0.00,Wunderground v.1.15,2013-05-01 01:32:00,
2013-04-30 20:42:00,72.6,55.0,29.88,SSE,165,0.0,0.0,54,0.00,,,0.00,Wunderground v.1.15,2013-05-01 01:42:00,
2013-04-30 20:52:00,72.1,55.0,29.88,SSE,165,0.0,5.0,55,0.00,,,0.00,Wunderground v.1.15,2013-05-01 01:52:00,
2013-04-30 21:02:00,71.9,54.9,29.89,South,172,0.0,0.0,55,0.00,,,0.00,Wunderground v.1.15,2013-05-01 02:02:00,
2013-04-30 21:12:00,71.6,55.1,29.89,SSE,163,0.0,0.0,56,0.00,,,0.00,Wunderground v.1.15,2013-05-01 02:12:00,
2013-04-30 21:22:00,71.4,54.9,29.90,SSE,163,0.0,0.0,56,0.00,,,0.00,Wunderground v.1.15,2013-05-01 02:22:00,
2013-04-30 21:32:00,70.9,54.9,29.89,SSE,164,0.0,7.0,57,0.00,,,0.00,Wunderground v.1.15,2013-05-01 02:32:00,
2013-04-30 21:42:00,70.6,55.1,29.90,SSE,165,0.0,0.0,58,0.00,,,0.00,Wunderground v.1.15,2013-05-01 02:42:00,
2013-04-30 21:52:00,70.3,55.3,29.90,SSE,165,0.0,0.0,59,0.00,,,0.00,Wunderground v.1.15,2013-05-01 02:52:00,
2013-04-30 22:02:00,69.9,55.4,29.90,South,174,0.0,0.0,60,0.00,,,0.00,Wunderground v.1.15,2013-05-01 03:02:00,
2013-04-30 22:12:00,69.6,55.1,29.91,SSE,165,0.0,0.0,60,0.00,,,0.00,Wunderground v.1.15,2013-05-01 03:12:00,
2013-04-30 22:22:00,69.1,56.0,29.91,SSE,165,0.0,0.0,63,0.00,,,0.00,Wunderground v.1.15,2013-05-01 03:22:00,
2013-04-30 22:32:00,68.8,55.7,29.91,SSE,163,0.0,0.0,63,0.00,,,0.00,Wunderground v.1.15,2013-05-01 03:32:00,
2013-04-30 22:42:00,68.3,55.6,29.91,SSE,165,0.0,0.0,64,0.00,,,0.00,Wunderground v.1.15,2013-05-01 03:42:00,
2013-04-30 22:52:00,67.6,55.8,29.92,SSE,165,0.0,0.0,66,0.00,,,0.00,Wunderground v.1.15,2013-05-01 03:52:00,
2013-04-30 23:02:00,67.0,56.1,29.92,SSE,165,0.0,1.0,68,0.00,,,0.00,Wunderground v.1.15,2013-05-01 04:02:00,
2013-04-30 23:07:00,66.5,55.6,29.92,SSE,165,0.0,1.0,68,0.00,,,0.00,Wunderground v.1.15,2013-05-01 04:07:00,
2013-04-30 23:12:00,65.9,55.8,29.93,SSE,165,0.0,0.0,70,0.00,,,0.00,Wunderground v.1.15,2013-05-01 04:12:00,
2013-04-30 23:22:00,65.4,56.1,29.93,SSE,165,0.0,3.0,72,0.00,,,0.00,Wunderground v.1.15,2013-05-01 04:22:00,
2013-04-30 23:27:00,65.4,56.5,29.93,SSE,165,0.0,3.0,73,0.00,,,0.00,Wunderground v.1.15,2013-05-01 04:27:00,
2013-04-30 23:32:00,65.4,56.5,29.93,SSE,165,0.0,3.0,73,0.00,,,0.00,Wunderground v.1.15,2013-05-01 04:32:00,
2013-04-30 23:42:00,65.2,56.7,29.93,SSE,165,0.0,0.0,74,0.00,,,0.00,Wunderground v.1.15,2013-05-01 04:42:00,
2013-04-30 23:52:00,64.7,57.0,29.94,SSE,165,0.0,0.0,76,0.00,,,0.00,Wunderground v.1.15,2013-05-01 04:52:00,